• In Latvia
  • List of Countries
  • For 7 days
  • Water Temperature
  • Satellite Maps
  • Weather Map
  • Weather Widgets
  • user-avatar
    Login

    Hourly Weather Dyudikovo

    Today, 22 September, Saturday

    Time Temperature Precipitation Wind Pressure Humidity
    00:00 +17°C° 0.1 mm 2 mps 750 mmHg 95%
    01:00 +16°C° 0 mm 2 mps 750 mmHg 95%
    02:00 +16°C° 0 mm 3 mps 750 mmHg 95%
    03:00 +16°C° 0 mm 2 mps 750 mmHg 95%
    04:00 +16°C° 0 mm 3 mps 750 mmHg 95%
    05:00 +16°C° 0 mm 3 mps 749 mmHg 94%
    06:00 +15°C° 0 mm 4 mps 749 mmHg 94%
    07:00 +17°C° 0 mm 4 mps 749 mmHg 91%
    08:00 +18°C° 0 mm 4 mps 749 mmHg 88%
    09:00 +17°C° 0 mm 5 mps 748 mmHg 84%
    10:00 +20°C° 0 mm 5 mps 748 mmHg 77%
    11:00 +21°C° 0 mm 5 mps 748 mmHg 69%
    12:00 +23°C° 0 mm 6 mps 747 mmHg 62%
    13:00 +23°C° 0 mm 6 mps 747 mmHg 59%
    14:00 +24°C° 0 mm 6 mps 746 mmHg 56%
    15:00 +26°C° 0 mm 5 mps 745 mmHg 53%
    16:00 +25°C° 0 mm 5 mps 745 mmHg 57%
    17:00 +23°C° 0 mm 5 mps 744 mmHg 61%
    18:00 +22°C° 0 mm 5 mps 744 mmHg 65%
    19:00 +21°C° 0 mm 5 mps 744 mmHg 67%
    20:00 +20°C° 0 mm 5 mps 744 mmHg 68%
    21:00 +20°C° 0 mm 5 mps 743 mmHg 70%
    22:00 +17°C° 0 mm 5 mps 743 mmHg 76%
    23:00 +17°C° 0 mm 4 mps 743 mmHg 81%

    Tomorrow, 23 September, Sunday

    Time Temperature Precipitation Wind Pressure Humidity
    00:00 +16°C° 0 mm 3 mps 743 mmHg 87%
    01:00 +14°C° 0.2 mm 3 mps 743 mmHg 88%
    02:00 +13°C° 0.2 mm 3 mps 743 mmHg 88%
    03:00 +12°C° 0.2 mm 3 mps 743 mmHg 89%
    04:00 +12°C° 0.3 mm 3 mps 742 mmHg 89%
    05:00 +11°C° 0.3 mm 3 mps 742 mmHg 89%
    06:00 +11°C° 0.3 mm 4 mps 742 mmHg 89%
    07:00 +11°C° 0.7 mm 4 mps 742 mmHg 90%
    08:00 +10°C° 0.7 mm 4 mps 741 mmHg 91%
    09:00 +10°C° 0.7 mm 4 mps 741 mmHg 92%
    10:00 +10°C° 1.4 mm 4 mps 741 mmHg 91%
    11:00 +10°C° 1.4 mm 4 mps 741 mmHg 90%
    12:00 +10°C° 1.4 mm 4 mps 742 mmHg 89%
    13:00 +11°C° 0.4 mm 4 mps 742 mmHg 85%
    14:00 +12°C° 0.4 mm 4 mps 742 mmHg 81%
    15:00 +12°C° 0.4 mm 4 mps 742 mmHg 76%
    16:00 +12°C° 0 mm 4 mps 743 mmHg 77%
    17:00 +11°C° 0 mm 4 mps 743 mmHg 78%
    18:00 +11°C° 0 mm 4 mps 743 mmHg 80%
    19:00 +10°C° 0 mm 4 mps 743 mmHg 83%
    20:00 +9°C° 0 mm 3 mps 743 mmHg 86%
    21:00 +8°C° 0 mm 3 mps 743 mmHg 89%
    22:00 +8°C° 0 mm 3 mps 743 mmHg 90%
    23:00 +8°C° 0 mm 3 mps 743 mmHg 91%

    Day after tomorrow, 24 September, Monday

    Time Temperature Precipitation Wind Pressure Humidity
    00:00 +8°C° 0 mm 3 mps 743 mmHg 91%
    01:00 +6°C° 0 mm 4 mps 743 mmHg 92%
    02:00 +6°C° 0 mm 4 mps 743 mmHg 92%
    03:00 +6°C° 0 mm 4 mps 743 mmHg 93%
    04:00 +6°C° 0 mm 4 mps 743 mmHg 94%
    05:00 +5°C° 0 mm 4 mps 743 mmHg 95%
    06:00 +5°C° 0 mm 4 mps 743 mmHg 95%
    07:00 +6°C° 0 mm 4 mps 743 mmHg 93%
    08:00 +7°C° 0 mm 4 mps 743 mmHg 90%
    09:00 +7°C° 0 mm 4 mps 743 mmHg 87%
    10:00 +8°C° 0 mm 4 mps 743 mmHg 83%
    11:00 +10°C° 0 mm 3 mps 743 mmHg 78%
    12:00 +11°C° 0 mm 3 mps 743 mmHg 74%
    13:00 +11°C° 0 mm 3 mps 743 mmHg 73%
    14:00 +12°C° 0 mm 3 mps 743 mmHg 72%
    15:00 +12°C° 0 mm 3 mps 743 mmHg 70%
    16:00 +11°C° 0.6 mm 3 mps 742 mmHg 77%
    17:00 +10°C° 0.6 mm 3 mps 742 mmHg 84%
    18:00 +9°C° 0.6 mm 3 mps 742 mmHg 91%
    19:00 +9°C° 0.8 mm 3 mps 741 mmHg 92%
    20:00 +9°C° 0.8 mm 3 mps 740 mmHg 93%
    21:00 +8°C° 0.8 mm 3 mps 740 mmHg 94%
    22:00 +7°C° 0.9 mm 4 mps 739 mmHg 94%
    23:00 +7°C° 0.9 mm 4 mps 738 mmHg 93%

    25 September, Tuesday

    Time Temperature Precipitation Wind Pressure Humidity
    00:00 +7°C° 0.9 mm 5 mps 737 mmHg 93%
    01:00 +7°C° 2 mm 6 mps 736 mmHg 93%
    02:00 +7°C° 2 mm 6 mps 735 mmHg 93%
    03:00 +6°C° 2 mm 7 mps 733 mmHg 93%
    04:00 +6°C° 2.6 mm 7 mps 733 mmHg 93%
    05:00 +6°C° 2.6 mm 8 mps 732 mmHg 92%
    06:00 +6°C° 2.6 mm 8 mps 731 mmHg 92%
    07:00 +6°C° 2 mm 8 mps 731 mmHg 92%
    08:00 +6°C° 2 mm 8 mps 731 mmHg 91%
    09:00 +6°C° 2 mm 8 mps 732 mmHg 91%
    10:00 +6°C° 1.7 mm 8 mps 732 mmHg 90%
    11:00 +6°C° 1.7 mm 9 mps 733 mmHg 90%
    12:00 +6°C° 1.7 mm 9 mps 733 mmHg 89%
    13:00 +6°C° 1.1 mm 9 mps 734 mmHg 88%
    14:00 +6°C° 1.1 mm 9 mps 735 mmHg 87%
    15:00 +6°C° 1.1 mm 10 mps 735 mmHg 86%
    16:00 +5°C° 0.5 mm 10 mps 736 mmHg 85%
    17:00 +5°C° 0.5 mm 10 mps 737 mmHg 84%
    18:00 +5°C° 0.5 mm 10 mps 738 mmHg 83%
    19:00 +5°C° 0.2 mm 10 mps 739 mmHg 82%
    20:00 +3°C° 0.2 mm 10 mps 740 mmHg 81%
    21:00 +3°C° 0.2 mm 10 mps 741 mmHg 80%
    22:00 +2°C° 0 mm 9 mps 742 mmHg 78%
    23:00 +1°C° 0 mm 9 mps 743 mmHg 76%

    26 September, Wednesday

    Time Temperature Precipitation Wind Pressure Humidity
    00:00 +1°C° 0 mm 8 mps 744 mmHg 74%
    01:00 0°C° 0 mm 8 mps 745 mmHg 73%
    02:00 0°C° 0 mm 7 mps 746 mmHg 72%
    03:00 -1°C° 0 mm 7 mps 746 mmHg 70%
    04:00 -1°C° 0 mm 6 mps 747 mmHg 71%
    05:00 -1°C° 0 mm 6 mps 747 mmHg 72%
    06:00 -1°C° 0 mm 5 mps 747 mmHg 72%
    07:00 0°C° 0.2 mm 5 mps 748 mmHg 75%
    08:00 +1°C° 0.2 mm 5 mps 748 mmHg 78%
    09:00 +2°C° 0.2 mm 5 mps 748 mmHg 80%
    10:00 +3°C° 0 mm 5 mps 748 mmHg 78%
    11:00 +5°C° 0 mm 5 mps 748 mmHg 77%
    12:00 +6°C° 0 mm 5 mps 749 mmHg 75%
    13:00 +7°C° 0 mm 5 mps 748 mmHg 71%
    14:00 +8°C° 0 mm 5 mps 748 mmHg 66%
    15:00 +9°C° 0 mm 5 mps 748 mmHg 62%
    16:00 +8°C° 0 mm 5 mps 747 mmHg 67%
    17:00 +7°C° 0 mm 5 mps 747 mmHg 71%
    18:00 +7°C° 0 mm 5 mps 746 mmHg 76%
    19:00 +7°C° 0.3 mm 6 mps 745 mmHg 79%
    20:00 +7°C° 0.3 mm 6 mps 744 mmHg 83%
    21:00 +6°C° 0.3 mm 7 mps 743 mmHg 87%
    22:00 +6°C° 0.7 mm 8 mps 741 mmHg 87%
    23:00 +6°C° 0.7 mm 8 mps 740 mmHg 88%

    27 September, Thursday

    Time Temperature Precipitation Wind Pressure Humidity
    00:00 +6°C° 0.7 mm 9 mps 738 mmHg 89%
    01:00 +6°C° 1.6 mm 8 mps 737 mmHg 89%
    02:00 +6°C° 1.6 mm 8 mps 736 mmHg 89%
    03:00 +6°C° 1.6 mm 8 mps 735 mmHg 89%
    04:00 +6°C° 1.1 mm 8 mps 735 mmHg 88%
    05:00 +6°C° 1.1 mm 8 mps 734 mmHg 86%
    06:00 +6°C° 1.1 mm 8 mps 734 mmHg 85%
    07:00 +6°C° 0.1 mm 8 mps 735 mmHg 82%
    08:00 +6°C° 0.1 mm 8 mps 735 mmHg 80%
    09:00 +6°C° 0.1 mm 7 mps 736 mmHg 77%
    10:00 +8°C° 0.1 mm 7 mps 736 mmHg 72%
    11:00 +9°C° 0.1 mm 7 mps 736 mmHg 67%
    12:00 +9°C° 0.1 mm 7 mps 736 mmHg 62%
    13:00 +10°C° 0 mm 7 mps 736 mmHg 60%
    14:00 +10°C° 0 mm 7 mps 735 mmHg 59%
    15:00 +10°C° 0 mm 6 mps 735 mmHg 57%
    16:00 +9°C° 0.2 mm 6 mps 735 mmHg 62%
    17:00 +8°C° 0.2 mm 6 mps 735 mmHg 66%
    18:00 +7°C° 0.2 mm 6 mps 734 mmHg 71%
    19:00 +7°C° 0.2 mm 6 mps 734 mmHg 74%
    20:00 +7°C° 0.2 mm 6 mps 734 mmHg 78%
    21:00 +6°C° 0.2 mm 5 mps 734 mmHg 82%
    22:00 +5°C° 0.2 mm 6 mps 734 mmHg 82%
    23:00 +5°C° 0.2 mm 6 mps 734 mmHg 82%
    Show more